TimeCDT,TemperatureF,Dew PointF,Humidity,Sea Level PressureIn,VisibilityMPH,Wind Direction,Wind SpeedMPH,Gust SpeedMPH,PrecipitationIn,Events,Conditions,WindDirDegrees,DateUTC
12:15 AM,61.7,57.7,87,30.13,10.0,Calm,Calm,-,N/A,,Clear,0,2012-10-05 05:15:00
12:35 AM,60.1,57.6,91,30.13,10.0,Calm,Calm,-,N/A,,Clear,0,2012-10-05 05:35:00
12:55 AM,61.2,57.9,89,30.13,7.0,South,3.5,-,N/A,,Clear,170,2012-10-05 05:55:00
1:15 AM,60.3,57.4,90,30.13,10.0,South,5.8,-,N/A,,Clear,170,2012-10-05 06:15:00
1:35 AM,61.2,58.5,91,30.14,10.0,NNW,5.8,-,N/A,,Clear,340,2012-10-05 06:35:00
1:55 AM,62.1,58.3,87,30.14,10.0,Calm,Calm,-,N/A,,Clear,0,2012-10-05 06:55:00
2:15 AM,60.1,57.0,90,30.14,10.0,NNW,5.8,-,N/A,,Clear,330,2012-10-05 07:15:00
2:35 AM,60.3,56.1,86,30.15,7.0,NNW,10.4,-,N/A,,Clear,330,2012-10-05 07:35:00
2:55 AM,58.6,54.0,84,30.14,7.0,NNW,5.8,-,N/A,,Clear,330,2012-10-05 07:55:00
3:15 AM,58.1,52.9,83,30.14,10.0,North,5.8,-,N/A,,Clear,350,2012-10-05 08:15:00
3:35 AM,57.2,52.5,84,30.14,10.0,NNW,6.9,-,N/A,,Clear,340,2012-10-05 08:35:00
3:55 AM,56.7,52.2,85,30.15,10.0,NNW,6.9,-,N/A,,Clear,330,2012-10-05 08:55:00
4:15 AM,56.5,52.2,85,30.15,10.0,NNW,6.9,-,N/A,,Clear,340,2012-10-05 09:15:00
4:35 AM,56.3,51.8,85,30.15,10.0,NNW,8.1,-,N/A,,Clear,330,2012-10-05 09:35:00
4:55 AM,55.6,51.6,87,30.15,10.0,NNW,5.8,-,N/A,,Clear,330,2012-10-05 09:55:00
5:15 AM,55.0,51.4,88,30.15,10.0,NNW,5.8,-,N/A,,Clear,330,2012-10-05 10:15:00
5:35 AM,54.7,51.3,88,30.15,10.0,North,5.8,-,N/A,,Clear,360,2012-10-05 10:35:00
5:55 AM,54.1,51.3,90,30.16,7.0,NW,9.2,-,N/A,,Clear,320,2012-10-05 10:55:00
6:15 AM,54.0,51.3,91,30.16,10.0,NNW,5.8,-,N/A,,Clear,340,2012-10-05 11:15:00
6:35 AM,53.6,51.1,91,30.15,10.0,NNE,3.5,-,N/A,,Clear,20,2012-10-05 11:35:00
6:55 AM,53.4,51.1,92,30.17,10.0,NW,6.9,-,N/A,,Clear,310,2012-10-05 11:55:00
7:15 AM,53.8,51.3,91,30.16,10.0,NNW,6.9,-,N/A,,Clear,340,2012-10-05 12:15:00
7:35 AM,54.1,51.1,89,30.16,10.0,NNW,6.9,-,N/A,,Clear,330,2012-10-05 12:35:00
7:55 AM,54.7,50.9,87,30.15,10.0,North,4.6,-,N/A,,Scattered Clouds,360,2012-10-05 12:55:00
8:15 AM,55.4,51.1,85,30.15,10.0,North,5.8,-,N/A,,Scattered Clouds,350,2012-10-05 13:15:00
8:35 AM,56.3,50.9,82,30.15,10.0,North,6.9,-,N/A,,Clear,10,2012-10-05 13:35:00
8:55 AM,56.3,50.4,80,30.18,10.0,NNW,10.4,-,N/A,,Scattered Clouds,340,2012-10-05 13:55:00
9:15 AM,57.4,50.7,78,30.18,10.0,North,8.1,-,N/A,,Clear,360,2012-10-05 14:15:00
9:35 AM,58.3,49.8,73,30.17,10.0,North,9.2,-,N/A,,Scattered Clouds,350,2012-10-05 14:35:00
9:55 AM,59.4,49.8,71,30.16,10.0,North,6.9,-,N/A,,Scattered Clouds,360,2012-10-05 14:55:00
10:15 AM,60.8,49.8,67,30.17,10.0,North,8.1,-,N/A,,Scattered Clouds,350,2012-10-05 15:15:00
10:35 AM,59.5,49.1,68,30.15,10.0,North,9.2,-,N/A,,Mostly Cloudy,360,2012-10-05 15:35:00
10:55 AM,61.0,48.9,64,30.16,10.0,North,6.9,-,N/A,,Scattered Clouds,360,2012-10-05 15:55:00
11:15 AM,61.7,48.9,63,30.14,10.0,NE,6.9,-,N/A,,Scattered Clouds,40,2012-10-05 16:15:00
11:35 AM,62.6,48.9,61,30.13,10.0,ENE,6.9,-,N/A,,Mostly Cloudy,60,2012-10-05 16:35:00
11:55 AM,63.7,49.6,60,30.12,10.0,NE,6.9,-,N/A,,Mostly Cloudy,50,2012-10-05 16:55:00
12:15 PM,64.6,49.8,59,30.13,10.0,NNW,5.8,-,N/A,,Mostly Cloudy,340,2012-10-05 17:15:00
12:35 PM,63.9,49.5,59,30.11,10.0,Calm,Calm,-,N/A,,Scattered Clouds,0,2012-10-05 17:35:00
12:55 PM,64.2,49.5,59,30.10,10.0,Calm,Calm,-,N/A,,Mostly Cloudy,0,2012-10-05 17:55:00
1:35 PM,63.5,49.5,60,30.08,10.0,North,5.8,-,N/A,Thunderstorm,Mostly Cloudy,360,2012-10-05 18:35:00
1:55 PM,62.6,49.3,62,30.09,10.0,NNW,5.8,-,N/A,,Overcast,330,2012-10-05 18:55:00
2:15 PM,60.4,51.1,71,30.08,10.0,NNW,11.5,-,N/A,Rain-Thunderstorm,Light Thunderstorms and Rain,330,2012-10-05 19:15:00
2:35 PM,56.7,50.0,78,30.08,10.0,North,12.7,-,N/A,Rain-Thunderstorm,Light Thunderstorms and Rain,350,2012-10-05 19:35:00
2:55 PM,53.4,49.6,87,30.04,7.0,NNE,10.4,-,0.03,Rain-Thunderstorm,Thunderstorms and Rain,20,2012-10-05 19:55:00
3:15 PM,52.5,50.0,91,30.06,4.0,NNW,9.2,-,0.07,Rain-Thunderstorm,Heavy Thunderstorms and Rain,340,2012-10-05 20:15:00
3:35 PM,52.0,50.0,93,30.05,10.0,North,12.7,-,0.09,Rain,Light Rain,350,2012-10-05 20:35:00
3:55 PM,52.0,50.2,94,30.07,10.0,NNW,10.4,16.1,0.09,Rain,Light Rain,330,2012-10-05 20:55:00
4:15 PM,51.3,49.3,93,30.05,10.0,NNW,20.7,-,N/A,,Overcast,330,2012-10-05 21:15:00
4:35 PM,50.2,48.2,93,30.05,10.0,North,12.7,24.2,0.01,Rain-Thunderstorm,Thunderstorms and Rain,350,2012-10-05 21:35:00
4:55 PM,49.6,47.7,93,30.07,5.0,NNW,13.8,19.6,0.06,Rain,Rain,340,2012-10-05 21:55:00
5:15 PM,48.7,46.8,93,30.10,10.0,NNW,12.7,18.4,N/A,Rain-Thunderstorm,Rain,330,2012-10-05 22:15:00
5:35 PM,47.5,45.5,93,30.09,4.0,North,17.3,24.2,0.07,Rain,Heavy Rain,350,2012-10-05 22:35:00
5:55 PM,47.3,45.9,95,30.11,7.0,NNW,11.5,19.6,0.12,Rain,Heavy Rain,330,2012-10-05 22:55:00
6:15 PM,47.3,45.7,94,30.10,7.0,North,11.5,-,0.04,Rain,Rain,360,2012-10-05 23:15:00
6:35 PM,47.3,45.7,94,30.13,7.0,NNW,13.8,-,0.06,Rain,Rain,330,2012-10-05 23:35:00
6:55 PM,46.6,44.6,93,30.12,10.0,North,12.7,19.6,0.07,Rain,Light Rain,350,2012-10-05 23:55:00
7:15 PM,46.8,45.0,93,30.13,7.0,NNW,12.7,19.6,0.02,Rain-Thunderstorm,Heavy Thunderstorms and Rain,340,2012-10-06 00:15:00
7:35 PM,46.0,43.9,92,30.14,10.0,NNW,19.6,25.3,0.04,Rain,Light Rain,330,2012-10-06 00:35:00
7:55 PM,45.7,43.7,93,30.13,10.0,NNW,13.8,19.6,0.04,Rain,Light Rain,340,2012-10-06 00:55:00
8:15 PM,45.5,43.2,92,30.15,10.0,NW,16.1,-,0.02,Rain-Thunderstorm,Rain,320,2012-10-06 01:15:00
8:35 PM,45.0,43.2,93,30.13,10.0,NNW,13.8,20.7,0.02,Thunderstorm,Unknown,340,2012-10-06 01:35:00
8:55 PM,45.0,43.0,93,30.16,10.0,NNW,10.4,17.3,0.03,Rain,Rain,330,2012-10-06 01:55:00
9:15 PM,45.1,43.3,93,30.16,7.0,NNW,12.7,-,N/A,Rain,Light Rain,340,2012-10-06 02:15:00
9:35 PM,45.0,43.7,95,30.16,5.0,NNW,5.8,-,0.08,Rain,Heavy Rain,330,2012-10-06 02:35:00
9:55 PM,45.0,43.7,95,30.16,10.0,NNW,9.2,-,0.14,Rain,Light Rain,340,2012-10-06 02:55:00
10:15 PM,44.8,43.5,95,30.16,10.0,North,10.4,-,0.01,Rain,Light Rain,360,2012-10-06 03:15:00
10:35 PM,44.6,43.2,95,30.16,10.0,North,5.8,-,0.02,Rain,Light Rain,350,2012-10-06 03:35:00
10:55 PM,44.6,42.8,93,30.17,10.0,NNW,5.8,-,0.03,Rain,Light Rain,340,2012-10-06 03:55:00
11:15 PM,44.6,42.4,92,30.16,10.0,North,8.1,-,N/A,,Mostly Cloudy,350,2012-10-06 04:15:00
11:35 PM,44.4,42.8,94,30.17,10.0,NW,5.8,-,N/A,,Mostly Cloudy,310,2012-10-06 04:35:00
11:55 PM,44.8,43.3,95,30.16,10.0,NW,6.9,-,N/A,,Overcast,310,2012-10-06 04:55:00